Date String (YYYY-MM-DD hh:mm:ss) UTC,Instrument flags,Ambient pressure (hPa),Sample flow (lpm),Bypass flow (lpm),Sample temperature (°C),Ambient temperature (°C),ASC tube jacket temperature (°C),LED temperature (°C),Box temperature (°C),Sample RH (%),Span deviation,Mass concentration (μg/m³),Mass concentration (μg/m³),Mass concentration (μg/m³)
DateTimeUTC,F1_M11,P_M11,Q1_M11,Q2_M11,T1_M11,T2_M11,T3_M11,T4_M11,T5_M11,U1_M11,ZSPAN_M11,X0_M11,X2_M11,X1_M11
2022-10-14 18:00:00,,0823.3,4.99,0.00,30.4,29.2,00.0,39.2,32.2,08.6,0000.0,0006.27,0003.58,0003.14
2022-10-14 18:01:00,,0823.2,5.01,0.00,30.4,28.1,00.0,39.1,32.1,08.7,0000.0,0006.40,0003.59,0003.13
2022-10-14 18:02:00,,0823.2,4.99,0.00,30.3,26.9,00.0,39.1,32.0,08.3,0000.0,0006.32,0003.55,0003.12
2022-10-14 18:03:00,,0823.2,5.01,0.00,30.3,26.8,00.0,39.0,31.9,08.0,0000.0,0006.59,0003.51,0003.09
2022-10-14 18:04:00,,0823.2,4.99,0.00,30.2,27.1,00.0,39.0,31.8,07.9,0000.0,0007.16,0003.49,0003.08
2022-10-14 18:05:00,,0823.3,5.00,0.00,30.1,27.4,00.0,39.0,31.8,07.7,0000.0,0007.19,0003.48,0003.06
2022-10-14 18:06:00,,0823.2,5.01,0.00,30.1,27.7,00.0,39.0,31.7,07.8,0000.0,0007.14,0003.45,0003.05
2022-10-14 18:07:00,,0823.2,4.99,0.00,30.1,28.0,00.0,39.0,31.7,08.1,0000.0,0006.69,0003.43,0003.04
2022-10-14 18:08:00,,0823.2,5.01,0.00,30.1,28.2,00.0,38.9,31.8,08.0,0000.0,0006.84,0003.43,0003.01
2022-10-14 18:09:00,,0823.2,5.00,0.00,30.0,28.4,00.0,38.9,31.8,08.0,0000.0,0006.76,0003.40,0002.97
2022-10-14 18:10:00,,0823.2,5.00,0.00,30.1,28.5,00.0,38.9,31.7,08.1,0000.0,0006.51,0003.36,0002.96
2022-10-14 18:11:00,,0823.2,5.00,0.00,30.1,28.6,00.0,38.9,31.8,08.1,0000.0,0006.29,0003.33,0002.93
2022-10-14 18:12:00,,0823.2,5.00,0.00,30.1,28.8,00.0,38.9,31.9,08.2,0000.0,0006.92,0003.31,0002.90
2022-10-14 18:13:00,,0823.2,5.00,0.00,30.1,28.9,00.0,38.9,31.9,08.5,0000.0,0007.87,0003.33,0002.90
2022-10-14 18:14:00,,0823.2,5.00,0.00,30.1,28.9,00.0,38.9,31.9,09.0,0000.0,0007.81,0003.35,0002.93
2022-10-14 18:15:00,,0823.2,5.01,0.00,30.2,28.9,00.0,38.9,32.0,09.4,0000.0,0008.24,0003.38,0002.97
2022-10-14 18:16:00,,0823.2,4.99,0.00,30.2,27.8,00.0,38.9,31.9,09.3,0000.0,0008.47,0003.44,0003.01
2022-10-14 18:17:00,,0823.1,5.01,0.00,30.1,26.5,00.0,38.8,31.8,09.1,0000.0,0009.04,0003.46,0003.04
2022-10-14 18:18:00,,0823.1,4.99,0.00,30.1,26.6,00.0,38.8,31.7,09.4,0000.0,0009.33,0003.46,0003.05
2022-10-14 18:19:00,,0823.1,5.01,0.00,30.0,26.9,00.0,38.8,31.6,09.8,0000.0,0009.34,0003.49,0003.10
2022-10-14 18:20:00,,0823.0,4.98,0.00,29.9,27.2,00.0,38.7,31.5,09.9,0000.0,0009.45,0003.56,0003.14
2022-10-14 18:21:00,,0823.1,5.00,0.00,29.9,27.6,00.0,38.7,31.5,09.7,0000.0,0010.09,0003.62,0003.16
2022-10-14 18:22:00,,0823.1,4.99,0.00,29.8,27.8,00.0,38.7,31.5,09.5,0000.0,0010.40,0003.66,0003.18
2022-10-14 18:23:00,,0823.1,5.01,0.00,29.8,28.1,00.0,38.7,31.6,09.2,0000.0,0010.33,0003.67,0003.20
2022-10-14 18:24:00,,0823.1,5.00,0.00,29.8,28.2,00.0,38.7,31.6,09.2,0000.0,0009.37,0003.69,0003.21
2022-10-14 18:25:00,,0823.1,5.00,0.00,29.8,28.4,00.0,38.7,31.6,09.1,0000.0,0009.49,0003.71,0003.20
2022-10-14 18:26:00,,0823.1,5.00,0.00,29.9,28.5,00.0,38.7,31.7,08.9,0000.0,0008.84,0003.69,0003.19
2022-10-14 18:27:00,,0823.1,5.00,0.00,29.9,28.6,00.0,38.7,31.7,09.2,0000.0,0008.43,0003.66,0003.18
2022-10-14 18:28:00,,0823.1,5.01,0.00,29.9,28.7,00.0,38.7,31.7,08.9,0000.0,0008.15,0003.64,0003.18
2022-10-14 18:29:00,,0823.0,5.00,0.00,29.9,28.7,00.0,38.7,31.7,09.2,0000.0,0007.59,0003.65,0003.18
2022-10-14 18:30:00,,0823.0,4.99,0.00,30.0,28.8,00.0,38.7,31.8,09.1,0000.0,0007.62,0003.66,0003.19
2022-10-14 18:31:00,,0823.0,5.00,0.00,30.0,28.9,00.0,38.7,31.9,09.1,0000.0,0007.66,0003.63,0003.17
2022-10-14 18:32:00,,0823.1,4.99,0.00,30.0,29.0,00.0,38.8,31.9,09.1,0000.0,0007.14,0003.59,0003.16
2022-10-14 18:33:00,,0823.0,5.02,0.00,30.1,29.1,00.0,38.8,31.9,09.0,0000.0,0006.71,0003.56,0003.16
2022-10-14 18:34:00,,0823.0,4.99,0.00,30.1,28.7,00.0,38.8,32.0,08.8,0000.0,0006.90,0003.58,0003.16
2022-10-14 18:35:00,,0822.9,5.00,0.00,30.1,27.3,00.0,38.8,31.8,09.0,0000.0,0006.92,0003.58,0003.16
2022-10-14 18:36:00,,0822.9,5.01,0.00,30.0,26.5,00.0,38.7,31.7,09.1,0000.0,0006.70,0003.57,0003.16
2022-10-14 18:37:00,,0822.9,4.98,0.00,30.0,26.7,00.0,38.7,31.7,09.2,0000.0,0006.88,0003.59,0003.18
2022-10-14 18:38:00,,0822.9,5.01,0.00,29.9,27.0,00.0,38.7,31.5,09.3,0000.0,0007.55,0003.60,0003.18
2022-10-14 18:39:00,,0822.9,5.00,0.00,29.8,27.4,00.0,38.6,31.4,09.3,0000.0,0007.52,0003.64,0003.18
2022-10-14 18:40:00,,0822.9,5.00,0.00,29.8,27.7,00.0,38.6,31.5,09.1,0000.0,0007.87,0003.67,0003.17
2022-10-14 18:41:00,,0822.9,5.01,0.00,29.8,27.9,00.0,38.6,31.5,09.3,0000.0,0008.30,0003.67,0003.17
2022-10-14 18:42:00,,0822.8,4.99,0.00,29.8,28.1,00.0,38.6,31.5,09.5,0000.0,0008.17,0003.64,0003.16
2022-10-14 18:43:00,,0822.8,5.00,0.00,29.8,28.3,00.0,38.6,31.6,09.4,0000.0,0008.31,0003.63,0003.16
2022-10-14 18:44:00,,0822.8,4.99,0.00,29.8,28.4,00.0,38.6,31.6,09.1,0000.0,0009.24,0003.61,0003.15
2022-10-14 18:45:00,,0822.8,5.00,0.00,29.8,28.6,00.0,38.6,31.7,08.9,0000.0,0009.41,0003.61,0003.14
2022-10-14 18:46:00,,0822.8,5.00,0.00,29.9,28.7,00.0,38.6,31.7,08.8,0000.0,0009.62,0003.60,0003.14
2022-10-14 18:47:00,,0822.8,5.00,0.00,29.9,28.8,00.0,38.6,31.7,08.7,0000.0,0009.98,0003.61,0003.13
2022-10-14 18:48:00,,0822.8,5.01,0.00,29.9,28.8,00.0,38.7,31.7,08.9,0000.0,0011.16,0003.61,0003.12
2022-10-14 18:49:00,,0822.8,5.00,0.00,29.9,28.8,00.0,38.7,31.8,09.1,0000.0,0010.87,0003.63,0003.13
2022-10-14 18:50:00,,0822.8,4.99,0.00,30.0,27.8,00.0,38.7,31.8,09.1,0000.0,0010.71,0003.58,0003.13
2022-10-14 18:51:00,,0822.7,5.02,0.00,29.9,26.6,00.0,38.6,31.6,08.9,0000.0,0010.41,0003.55,0003.13
2022-10-14 18:52:00,,0822.7,4.99,0.00,29.8,26.4,00.0,38.6,31.5,09.0,0000.0,0009.96,0003.55,0003.12
2022-10-14 18:53:00,,0822.7,5.01,0.00,29.8,26.7,00.0,38.5,31.4,09.3,0000.0,0010.36,0003.54,0003.12
2022-10-14 18:54:00,,0822.7,5.00,0.00,29.7,27.0,00.0,38.5,31.3,09.4,0000.0,0011.03,0003.54,0003.12
2022-10-14 18:55:00,,0822.7,4.99,0.00,29.7,27.4,00.0,38.5,31.3,09.3,0000.0,0010.04,0003.55,0003.12
2022-10-14 18:56:00,,0822.6,5.02,0.00,29.6,27.7,00.0,38.5,31.4,09.2,0000.0,0009.70,0003.54,0003.13
2022-10-14 18:57:00,,0822.6,5.00,0.00,29.6,27.9,00.0,38.5,31.4,09.0,0000.0,0009.44,0003.54,0003.13
2022-10-14 18:58:00,,0822.6,4.99,0.00,29.7,28.1,00.0,38.5,31.4,08.9,0000.0,0009.23,0003.54,0003.13
2022-10-14 18:59:00,,0822.6,5.00,0.00,29.7,28.2,00.0,38.5,31.5,08.8,0000.0,0007.90,0003.52,0003.13
